Torna al catalogo

STARLINK-37254

AttivoComunicazioniVLEO
NORAD 68553·PAYLOAD·🇺🇸 United States

Lanciato Apr 2, 2026 da Cape Canaveral Space Force Station

Loading…

Prossimi Passaggi (prossime 24 ore)

TLE

AggiornatoSource: CelesTrak SupGP

Epoca: Sep 14, 2026, 22:43 UTC

1 68553C 26070M   26257.94701389 -.00016963  00000+0 -50101-3 0  2578
2 68553  53.1574 199.6361 0001286  93.8352 328.9705 15.34408844    12

Traccia STARLINK-37254 in tempo reale con AllMySat

Download on the App Store